Portada
METAR-TAF:

METAR-TAF

Aeropuertos :

Aeropuerto de Umiujaq

Umiujaq, Quebec, Canadá

latitud: 56-32N, longitud: 076-31W, altitud: 71 m

Observación

El informe se hizo hace 4 horas y 20 minutos, a las 21:00 UTC
Viento 14 kt del sur-suroeste
Temperatura 5°C
Humedad 81%
Presión 1030 hPa
Visibilidad: 24.1 km
Escasas nubes a una altura de 1500 ft
Escasas nubes a una altura de 3500 ft
Cielo nuboso a una altura de 27000 ft

METAR: CYMU 242100Z 20014KT 15SM FEW015 FEW035 BKN270 05/02 A3041 RMK ST1SC1CI4 SC TR LAST STFD OBS/NEXT 25 1200Z SLP304

Hora: 21:20 (01:20 UTC)


TAF: falta

Observaciones y pronósticos meteorológicos de más de 4000 aeropuertos (mensajes METAR y TAF).

Los puntos amarillos y rojos representan las estaciones disponibles.

Ponga el ratón en el punto deseado para ver el nombre de la estación.

Haga clic para ver las observaciones y los pronósticos meteorológicos.

Para cambiar el mapa : haga clic en los botones verdes con una cruz de color negro para hacer un zoom, en el botón verde con un guión para alejar o en las flechas verdes para mapas adyacentes.


METAR-TAF: